sat.trackr.live / text

‹ back to catalog

STARLINK-30299

NORAD 57650 · 2023-122U

PAYLOAD ACTIVE UNKNOWN

§ Identity

Operator
Country
US
Launch date
2023-08-17
Launch site
AFETR
Launch vehicle
Mass (kg)
RCS (m²)

Purposes: comms

External: N2YO · Heavens-Above · Gunter

§ Orbital elements

Epoch: 2026-09-19T19:04:03.872928Z

Period
94.27 min
Inclination
43.0040°
Eccentricity
0.0001847
Mean motion
15.27573636 rev/d
Perigee alt
481.8 km
Apogee alt
484.3 km
Semi-major
6,861.2 km
B*
-2.7148e-6
RAAN
76.2263°
Arg perigee
271.3637°
Mean anomaly
88.7003°
Rev number
17,189

§ Raw data

STARLINK-302991 57650U 23122U   26262.79448927 -.00000337  00000+0 -27148-5 0  99922 57650  43.0040  76.2263 0001847 271.3637  88.7003 15.27573636171898

JSON: /api/v1/satellites/57650 · /tle

For live sub-satellite position, see the globe view (requires WebGL).

§ Visibility from observer

Set your observer location to see the next 7 days of passes ≥ 10°. The values pass through the URL so the page stays shareable.

No JS? Fill the form by hand. The geolocation button needs JavaScript.